Погода в Порт-дю-Солей

Франция     46°11′33″N   6°46′20″E
темп.,
°C
ветер,
м/с
пор.,
м/с
влажн.,
%
обл.,
%
осадки,
мм/ч
давл.,
гПа
погр.,
м
29 ноября, пн
пн2901:00−6зюз1298100 3.3 1004123
04:00−6зсз1297100 1.6 1004173
07:00−5с2497100 6.1 1007308
10:00−5ссв2295100 1.9 1010317
13:00−4ссз2494100 4.2 1011467
16:00−5с239789 1.8 1015188
19:00−8св1198100 2.8 102039
22:00−11юв229860 0.1 102426
30 ноября, вт
вт3001:00−11ююв2297100 0.1 102629
04:00−13юв229447 0.0 102830
07:00−12юв329039 0.0 103031
10:00−5ююв127968 0.0 102679
13:00−1з117483 0.0 1024243
16:00−2ю119299 0.0 102421
19:00−5ююв228951 0.0 102623
22:00−7ююв22899 0.0 102623
1 декабря, ср
ср101:00−6ююв229421 0.0 102329
04:00−4ю239639 0.0 101958
07:00−4ю249642 0.0 101791
10:000ю349393 0.0 1013149
13:00+1ю3599100 0.0 1008209
16:00+1ююз23100100 3.1 1005138
19:000юз2799100 8.6 1006604
22:000юз2399100 3.4 1007172
2 декабря, чт
чт201:00−1юз2210099 4.6 1005182
04:00−1зюз2399100 2.9 1004274
07:00−2з1299100 4.8 1005166
10:00−2зсз2299100 1.0 1005227
13:00−2зсз2297100 2.4 1005356
16:00−3зсз2399100 2.1 1006308
19:00−4сз2398100 5.4 1009242
22:00−4с2498100 3.3 1011276
3 декабря, пт
пт301:00−6всв129997 5.9 101397
04:00−10юв2299100 0.3 101739
07:00−12юв2297100 0.4 102029
10:00−7ю1191100 0.0 101866
13:00−4ююз2283100 0.0 1014340
16:00−4ю2493100 0.1 1012118
19:00−4ююз2497100 1.7 1014135
22:00−3юз1298100 1.9 101686